#timestamp,LO_Frequency,Hit,StdDev 
1512021615.1,286046998.6,N
1512021635.9,286047000.7,N
1512021655.7,286046999.9,N
1512021675.5,286047000.8,N
1512021695.4,286046999.3,N
1512021715.2,286047000.8,N
1512021735.0,286046998.7,N
1512021735.9,286046998.7,N
1512021755.8,286047001.2,N
1512021775.6,286047000.7,N
1512021795.5,286047000.6,N
1512021815.3,286047000.8,N
1512021835.1,286047001.2,N
1512021855.9,286047000.1,N
1512021875.7,286046998.1,N
1512021895.5,286047000.9,N
1512021915.4,286046999.7,N
1512021935.2,286047002.4,N
1512021955.1,286047000.0,N
1512021956.0,286047000.0,N
1512021975.8,286047002.8,N
1512021995.6,286047000.4,N
1512022015.5,286047002.5,N
1512022035.3,286047001.4,N
1512022055.2,286047004.1,Y
1512022075.9,286047001.4,P
1512022095.7,286047003.8,P
1512022115.6,286047001.4,N
1512022135.4,286047001.8,N
1512022155.2,286047002.4,N
1512022175.1,286047002.3,N
1512022176.0,286047002.3,N
1512022195.8,286047002.0,N
1512022215.7,286047001.8,N
1512022235.5,286047002.6,N
1512022255.3,286047002.1,N
1512022275.2,286047002.7,Y
1512022295.0,286046998.9,P
1512022295.9,286046998.9,N
1512022315.7,286046998.6,N
1512022335.6,286047001.0,N
1512022355.4,286047000.7,N
1512022375.3,286047000.1,N
1512022395.1,286046999.8,N
1512022415.8,286047000.8,N
1512022435.7,286047002.6,N
1512022455.5,286047001.7,N
1512022475.4,286047001.9,N
1512022495.2,286046999.8,N
1512022515.0,286047000.0,N
1512022515.9,286047000.0,N
1512022535.8,286047000.7,N
1512022555.6,286046999.8,N
1512022575.5,286046998.4,N
1512022595.3,286046996.5,N
1512022615.1,286046996.5,N
1512022635.9,286046999.5,N
1512022655.7,286046998.8,N
1512022675.5,286046999.0,N
1512022695.4,286046996.5,N
1512022715.2,286046996.6,N
1512022735.1,286046997.1,N
1512022736.0,286046997.1,N
1512022755.8,286046997.2,N
1512022775.6,286046994.9,N
1512022795.5,286046994.9,N
1512022815.3,286046997.5,N
1512022835.1,286046996.9,N
1512022855.9,286046998.7,N
1512022875.7,286046999.3,N
1512022895.6,286046999.0,N
1512022915.4,286047000.9,N
1512022935.2,286047001.2,N
1512022955.1,286046998.3,N
1512022956.0,286046998.3,N
1512022975.8,286046998.3,N
1512022995.7,286046999.4,N
1512023015.5,286046996.7,N
1512023035.3,286046998.9,N
1512023085.2,286046998.7,E
1512023095.1,286047001.1,N
1512023115.9,286047000.8,P
1512023135.7,286047002.3,P
1512023155.5,286047000.6,N
1512023175.4,286046998.5,N
1512023195.2,286046999.0,N
1512023215.0,286046998.4,N
1512023215.9,286046998.4,N
1512023235.8,286046998.5,N
1512023255.6,286046998.8,N
1512023275.5,286046998.2,N
1512023295.3,286046999.7,N
1512023315.1,286047002.7,N
1512023335.9,286047000.6,N
1512023355.7,286047000.4,N
1512023375.6,286047000.6,N
1512023395.4,286047000.6,N
1512023415.2,286047000.6,N
1512023435.1,286047002.0,N
1512023436.0,286047002.0,N
1512023455.8,286046999.9,N
1512023475.6,286047000.9,N
1512023495.5,286046998.4,N
1512023515.3,286047000.8,N
1512023535.2,286046998.8,N
1512023555.9,286047000.5,N
1512023575.7,286046998.1,N
1512023595.6,286046999.3,N
1512023615.4,286046998.8,N
1512023635.3,286047000.9,N
1512023655.1,286047000.7,N
1512023656.0,286047000.7,N
1512023675.8,286046998.3,N
1512023695.7,286046999.4,N
1512023715.5,286046998.5,N
1512023735.3,286046998.8,N
1512023755.2,286046996.7,N
1512023775.0,286046996.6,N
1512023775.9,286046996.6,N
1512023795.8,286046999.6,N
1512023815.6,286046997.0,N
1512023835.4,286046996.5,N
1512023855.3,286046999.6,N
1512023875.1,286046999.5,N
1512023895.8,286046999.5,N
1512023915.7,286046999.5,N
1512023935.5,286047001.1,N
1512023955.4,286047000.4,N
1512023975.2,286046998.8,N
1512023995.0,286046998.8,N
1512023995.9,286046998.8,N
1512024015.8,286046996.8,N
1512024035.6,286046997.3,N
1512024055.5,286046997.0,N
1512024075.3,286046996.5,N
1512024095.1,286046998.7,N
1512024115.9,286046999.1,N
1512024135.7,286046998.8,N
1512024155.5,286046998.9,N
1512024175.4,286046998.1,N
1512024195.2,286047000.4,N
1512024215.1,286046998.8,N
1512024216.0,286046998.8,N
1512024235.8,286046998.7,N
1512024255.6,286046998.4,N
1512024275.5,286046998.8,N
1512024295.3,286046997.4,N
1512024315.1,286046999.3,N
1512024335.9,286046999.6,N
1512024355.7,286046996.7,N
1512024375.6,286046996.5,N
1512024395.4,286046999.4,N
1512024415.2,286046999.6,N
1512024435.1,286046999.6,N
1512024436.0,286046999.6,N
1512024455.8,286046996.5,Y
1512024475.6,286046998.5,P
1512024495.5,286047001.1,P
1512024515.3,286046998.5,N
1512024535.2,286047000.6,N
1512024555.9,286046998.2,N
1512024575.7,286046998.4,N
1512024595.6,286046998.9,N
1512024615.4,286046999.6,N
1512024635.3,286046999.1,N
1512024655.1,286046998.0,N
1512024656.0,286046998.0,N
1512024675.8,286046998.0,N
1512024695.7,286046995.0,Y
1512024715.5,286046997.8,P
1512024735.3,286046997.9,P
1512024755.2,286046996.5,P
1512024775.0,286046998.2,N
1512024775.9,286046998.2,N
1512024795.8,286046998.7,N
1512024815.6,286046997.2,Y
1512024835.4,286046998.4,P
1512024855.3,286047000.9,P
1512024875.1,286046999.6,N
1512024895.9,286046999.6,N
1512024915.7,286046999.3,N
1512024935.5,286046997.0,Y
1512024955.4,286046999.5,P
1512024975.2,286046998.8,P
1512024995.0,286046998.7,P
1512024995.9,286046998.7,Y
1512025045.8,286047000.8,E
1512025055.7,286046998.4,N
1512025075.6,286046999.1,P
1512025095.4,286046999.0,N
1512025115.2,286046998.5,Y
1512025135.1,286047000.8,P
1512025136.0,286047000.8,N
1512025155.8,286046999.4,N
1512025175.7,286046998.3,N
1512025195.5,286047000.4,N
